Regional Weather Roundup
Issued by NWS Newport/Morehead, NC

Current Version | Previous Version | Graphics & Text | Print | Product List | Glossary On
Versions: 1 2 3 4 5 6 7 8 9 10 11 12 13 14 15 16 17 18 19 20 21 22 23 24 25 26 27 28 29 30 31 32 33 34 35 36 37 38 39 40 41 42 43 44 45 46 47 48 49 50
000 ASUS42 KMHX 240325 RWRMHX WEATHER ROUNDUP FOR EASTERN NORTH CAROLINA NATIONAL WEATHER SERVICE NEWPORT/MOREHEAD CITY NC 1100 PM EDT SAT JUL 23 2016 NOTE: "FAIR" INDICATES FEW OR NO CLOUDS BELOW 12,000 FEET WITH NO SIGNIFICANT WEATHER AND/OR OBSTRUCTIONS TO VISIBILITY NCZ015>017-031-032-045>047-102-103-240400- NORTH COAST CITY SKY/WX TMP DP RH WIND PRES REMARKS EDENTON CLEAR 84 73 69 SW10 29.99S ELIZABETH CITY CLEAR 82 75 79 S9 29.98R KITTY HAWK CLEAR 82 75 78 SW7 29.98S MANTEO N/A 82 77 85 SW12 30.00R $$ NCZ045>047-081-094-103-104-240400- CENTRAL COAST CITY SKY/WX TMP DP RH WIND PRES REMARKS FRISCO CLEAR 82 76 81 SW8 30.01S $$ NCZ095-097-098-100-101-240400- SOUTHERN COAST CITY SKY/WX TMP DP RH WIND PRES REMARKS BEAUFORT CLEAR 83 75 77 SW10 30.01S CEDAR ISLAND NOT AVBL JACKSONVILLE CLEAR 79 73 82 CALM 29.99S PINEY ISLAND CLEAR N/A N/A N/A S7 30.01 WILMINGTON CLEAR 79 74 84 SW3 30.00S $$ NCZ011>013-027>030-043-044-078>080-089-090>093-098-240400- COASTAL PLAIN CITY SKY/WX TMP DP RH WIND PRES REMARKS AHOSKIE CLEAR 79 76 91 S5 29.98S CLINTON CLEAR 75 73 92 CALM 30.00S ELIZABETHTOWN CLEAR 74 73 96 CALM 30.01R GOLDSBORO CLEAR 80 77 91 S3 29.98R GREENVILLE CLEAR 81 75 83 SW7 30.00S HAVELOCK CLEAR 79 74 84 S6 30.01F KENANSVILLE NOT AVBL KINSTON CLEAR 79 73 81 SW6 30.00R NEW BERN CLEAR 78 73 84 S3 30.01S RICHLANDS CLEAR 75 73 93 S3 30.01R ROCKY MOUNT CLEAR 81 76 84 S7 29.99R WASHINGTON CLEAR 80 74 81 S5 29.99S WHITEVILLE CLEAR 74 72 95 CALM 30.01R $$ AMZ130-135-150-152-154-156-158-170-250-252-270-ANZ085-086-088-633-658-670-240400- MARINE OBSERVATIONS STATION/POSITION TIME TEMP WIND PRES WAVE SWELL AIR SEA DIR/SP/G HT/PER HT/PER (UTC) (F) (DEG/KT/KT) (MB) (FT/S) (FT/S) CHESAPEAKE LIGHT NOT AVBL 64 E VA BEACH 0250 82 81 220/ 16/ 17 1014.5 3/ 4 2/ 8 DUCK 0200 85 67 N/A 2 E DUCK 0311 74 N/A 2/ 8 OREGON INLET 0200 84 84 N/A 13E OREGON INLT 0300 83 N/A 2/ 8 2/ 8 HATTERAS CG 0200 83 83 N/A DIAMOND BUOY 0250 84 86 210/ 14/ 16 1016.2 3/ 8 2/ 8 CAPE LOOKOUT 0300 83 210/ 6/ 8 1016.3 BEAUFORT LAB 0200 83 84 N/A 30 SE NEW RVR IN 0308 84 85 210/ 12/ 14 1016.3 30 SE NEW RVR IN 0225 85 N/A 3/ 8 27 SE WRIGHTSVLE 0308 84 85 210/ 10/ 14 1016.4 5 SE WRIGHTSVLE 0308 83 84 220/ 10/ 12 1016.8 225 S CAPE HAT 0250 83 85 140/ 2/ 6 1017.5 3/ 8 2/ 8 41 SE CHARLESTON 0250 85 86 200/ 10/ 12 1016.3 2/ 9 2/ 9 $$

USA.gov is the U.S. government's official web portal to all federal, state and local government web resources and services.